Vorticity
8 8 8 8 8 5 8 9 20 15 11 9 8 7 8 9 9 8 4 2 3 8 6 4 2 4 10 10 7 4 4 4 4 5 6 7 6 10 7 18 13 13 16
7 7 7 5 6 5 4 4 11 13 10 7 6 6 3 -0 -0 7 13 17 17 13 5 6 -0 4 11 8 7 9 9 10 7 5 5 5 4 4 9 6 6 19 4
10 5 2 4 5 4 6 10 6 5 8 11 10 9 6 8 12 11 4 1 7 6 5 5 4 7 11 13 14 11 11 12 16 14 9 9 7 5 4 5 6 7 13
1 8 2 5 7 9 13 15 8 3 5 4 6 7 8 8 6 4 5 5 6 9 8 8 10 13 11 8 7 8 6 5 7 7 9 12 14 17 12 6 4 5 7
6 4 9 -2 5 1 19 15 18 16 4 6 2 6 10 6 5 7 6 5 5 8 12 13 12 8 7 6 8 8 8 8 9 8 9 8 8 7 9 15 12 8 7
-16 11 4 6 8 5 14 25 16 5 35 19 5 10 7 6 7 6 7 8 12 13 10 8 9 8 8 9 9 9 9 8 4 7 7 13 12 8 7 7 11 13 12
19 3 4 -8 11 4 -2 -3 11 -0 4 25 35 21 5 5 7 3 7 12 11 6 8 8 8 8 7 6 6 6 5 8 12 9 11 7 9 8 8 8 8 4 15
7 32 27 19 3 -0 11 -3 -0 -1 -2 -5 7 10 15 12 18 15 13 12 6 7 7 5 6 3 6 8 8 8 8 9 8 10 12 12 10 9 9 11 8 9 6
20 -0 7 8 10 13 16 8 6 4 5 18 12 9 10 10 9 8 7 7 8 9 8 7 9 11 13 13 13 10 8 7 8 8 8 8 9 12 15 13 10 10 8
7 12 5 7 6 6 8 5 7 6 12 9 8 9 6 6 7 7 9 9 8 5 6 8 9 9 9 8 6 5 4 5 4 5 6 6 5 5 5 6 9 13 12
12 0 7 8 5 6 7 9 11 11 9 9 9 8 9 8 9 8 8 7 8 9 10 10 9 10 10 6 3 4 6 8 8 7 8 12 12 11 11 9 10 10 10
14 17 4 2 7 9 11 10 9 7 8 9 9 8 8 10 8 6 8 5 7 8 7 8 9 9 3 5 6 6 7 6 6 6 8 9 12 15 16 15 14 12 11
9 9 2 4 6 7 10 8 3 2 -2 7 8 8 10 10 10 10 7 8 10 10 11 9 5 4 6 8 8 9 8 7 10 13 14 17 16 14 14 16 17 20 23
4 7 12 13 13 13 12 8 8 10 8 9 8 12 9 8 7 7 6 7 8 9 7 7 8 9 9 8 9 12 15 16 15 14 13 12 12 10 10 10 12 13 16
9 10 9 11 9 4 6 6 10 11 10 11 12 10 6 6 10 9 6 9 10 9 9 10 12 15 15 15 15 14 12 13 11 12 12 12 14 15 17 16 13 15 12
11 12 8 9 11 7 7 13 9 11 7 13 12 9 1 -4 4 10 16 13 11 10 13 17 14 12 9 11 13 10 10 12 12 21 45 50 47 50 56 32 19 18 16
10 9 8 6 6 9 10 10 8 8 9 6 8 9 13 6 6 13 12 11 12 16 16 13 9 7 10 8 10 13 13 21 39 27 20 12 28 26 33 53 33 25 15
11 8 9 9 11 12 16 10 8 8 5 15 12 3 15 12 14 14 11 15 16 14 9 8 9 11 9 12 15 17 20 33 21 19 17 29 6 9 16 22 27 27 23
11 7 12 7 7 9 9 17 12 15 12 -1 -3 9 25 26 18 18 18 14 10 11 9 11 10 13 16 16 14 17 24 24 17 25 14 18 15 17 21 18 20 24 27
13 10 13 13 11 17 0 -11 21 -6 8 14 21 21 14 14 18 14 10 10 10 9 11 7 14 8 16 4 18 23 19 25 14 20 12 10 11 8 18 28 9 13 19
8 14 14 8 0 12 9 20 10 19 15 11 6 10 24 16 9 10 9 8 10 12 6 10 16 8 12 11 22 16 25 20 14 15 12 10 11 15 13 13 12 3 7
11 12 12 7 17 16 16 14 19 19 21 23 15 22 16 7 9 10 8 11 8 10 6 11 18 1 11 10 17 24 25 16 11 12 6 4 21 16 22 16 19 41 9
10 13 18 17 17 19 24 15 15 16 16 23 13 7 9 11 11 9 11 2 1 8 8 9 18 8 16 10 18 25 19 14 13 5 8 12 -5 13 10 11 0 2 17
16 13 15 13 10 13 12 12 9 13 18 16 11 9 11 11 9 15 20 18 9 12 8 7 15 13 15 7 25 20 22 24 14 9 3 2 8 2 -7 24 13 17 17
12 7 14 15 12 8 9 13 18 16 17 14 11 15 11 8 13 2 4 10 13 8 11 17 15 13 18 8 9 10 16 22 24 20 11 15 9 -2 11 1 26 -2 17
14 13 11 7 14 21 24 21 17 24 16 10 11 10 9 10 -1 5 12 6 14 11 22 14 31 11 18 17 6 5 7 12 13 22 20 19 15 9 11 14 6 17 12
Height
5886 5885 5883 5882 5881 5879 5877 5875 5872 5871 5873 5873 5872 5871 5869 5867 5866 5864 5863 5861 5859 5857 5856 5854 5853 5849 5845 5842 5841 5838 5837 5835 5832 5831 5831 5829 5827 5827 5828 5827 5825 5823 5824
5883 5882 5880 5880 5879 5877 5875 5873 5871 5870 5869 5868 5868 5867 5866 5864 5862 5860 5859 5857 5855 5853 5851 5849 5847 5844 5841 5837 5833 5832 5831 5830 5828 5825 5824 5824 5823 5823 5822 5820 5818 5817 5816
5879 5879 5878 5877 5876 5874 5871 5868 5867 5866 5866 5865 5863 5861 5860 5858 5856 5855 5854 5852 5850 5847 5845 5843 5840 5837 5834 5831 5829 5825 5823 5822 5821 5819 5817 5817 5817 5816 5815 5814 5812 5811 5811
5873 5874 5873 5872 5870 5868 5865 5863 5861 5860 5860 5859 5857 5856 5855 5853 5851 5850 5849 5846 5843 5841 5838 5835 5832 5830 5827 5823 5822 5820 5817 5815 5813 5812 5811 5809 5807 5807 5806 5805 5804 5805 5803
5862 5865 5867 5868 5866 5861 5859 5858 5856 5853 5852 5850 5848 5847 5846 5845 5844 5843 5841 5838 5835 5833 5830 5827 5824 5822 5820 5817 5814 5811 5810 5807 5806 5804 5802 5800 5797 5796 5795 5794 5794 5791 5794
5843 5854 5860 5860 5861 5858 5855 5852 5850 5847 5844 5842 5841 5840 5838 5839 5838 5835 5833 5831 5828 5825 5822 5819 5817 5813 5811 5809 5806 5804 5802 5799 5796 5797 5794 5792 5788 5785 5783 5782 5783 5781 5782
5842 5853 5852 5852 5853 5853 5851 5850 5847 5845 5841 5838 5835 5833 5831 5831 5831 5828 5826 5823 5821 5819 5816 5812 5809 5806 5804 5800 5796 5793 5790 5789 5789 5787 5784 5779 5778 5774 5772 5770 5769 5771 5770
5853 5850 5847 5848 5848 5847 5844 5843 5843 5840 5836 5834 5832 5829 5826 5825 5824 5821 5819 5815 5812 5810 5807 5804 5801 5798 5796 5793 5789 5784 5780 5777 5774 5774 5774 5771 5767 5764 5761 5759 5759 5757 5759
5847 5846 5846 5845 5843 5841 5840 5837 5836 5834 5830 5828 5825 5823 5821 5819 5815 5813 5810 5807 5803 5800 5798 5794 5791 5788 5785 5783 5780 5777 5772 5767 5763 5761 5760 5759 5758 5754 5751 5750 5748 5746 5747
5844 5842 5841 5840 5839 5836 5834 5831 5829 5827 5824 5820 5819 5817 5814 5811 5808 5806 5802 5799 5795 5792 5787 5782 5778 5775 5772 5769 5767 5764 5761 5757 5752 5746 5743 5743 5741 5740 5737 5736 5736 5734 5734
5839 5838 5837 5834 5832 5829 5827 5825 5824 5821 5817 5816 5814 5811 5808 5805 5801 5798 5794 5790 5786 5782 5777 5773 5768 5764 5761 5757 5752 5749 5744 5741 5738 5735 5731 5725 5721 5720 5719 5719 5719 5719 5719
5836 5833 5829 5826 5824 5823 5821 5818 5815 5814 5812 5810 5807 5804 5800 5796 5793 5789 5785 5781 5776 5771 5767 5762 5757 5751 5747 5743 5738 5733 5728 5723 5718 5713 5708 5704 5701 5699 5697 5697 5697 5698 5700
5828 5826 5824 5822 5820 5817 5814 5811 5810 5808 5805 5802 5799 5795 5792 5788 5783 5779 5774 5769 5764 5759 5754 5748 5742 5737 5732 5726 5721 5715 5710 5706 5701 5695 5691 5687 5682 5678 5675 5673 5672 5674 5678
5824 5821 5820 5818 5815 5811 5808 5805 5802 5799 5795 5792 5789 5785 5781 5776 5772 5767 5762 5757 5752 5747 5741 5735 5729 5723 5717 5710 5704 5697 5690 5685 5679 5675 5669 5664 5661 5658 5655 5652 5652 5652 5655
5819 5816 5813 5811 5808 5804 5801 5797 5794 5791 5787 5783 5778 5775 5771 5766 5761 5756 5751 5746 5740 5734 5729 5724 5718 5711 5703 5696 5688 5681 5674 5666 5660 5654 5646 5639 5633 5631 5629 5628 5628 5629 5633
5811 5808 5805 5803 5800 5796 5792 5788 5785 5782 5778 5773 5769 5764 5759 5755 5750 5744 5738 5732 5727 5722 5716 5710 5704 5698 5691 5683 5676 5668 5660 5649 5640 5632 5621 5613 5606 5599 5596 5597 5603 5607 5612
5802 5798 5794 5791 5788 5785 5781 5777 5772 5768 5764 5760 5756 5751 5747 5742 5736 5730 5724 5718 5713 5708 5704 5698 5692 5686 5679 5671 5661 5650 5643 5633 5623 5616 5608 5601 5595 5586 5582 5580 5584 5590 5593
5792 5788 5786 5783 5779 5777 5773 5769 5764 5758 5753 5749 5743 5739 5734 5729 5724 5719 5715 5709 5703 5698 5693 5688 5682 5675 5666 5658 5647 5636 5627 5620 5612 5605 5598 5592 5587 5582 5578 5575 5575 5577 5578
5785 5781 5777 5773 5770 5766 5762 5757 5753 5747 5741 5736 5731 5726 5721 5716 5712 5710 5706 5701 5696 5690 5684 5678 5672 5665 5656 5647 5636 5626 5617 5611 5604 5598 5592 5587 5582 5577 5573 5570 5569 5568 5567
5776 5772 5768 5763 5759 5755 5750 5745 5741 5736 5730 5723 5720 5715 5710 5708 5705 5701 5696 5691 5686 5680 5674 5669 5661 5653 5645 5636 5627 5618 5610 5603 5598 5592 5588 5583 5578 5574 5569 5565 5563 5560 5557
5765 5760 5757 5752 5748 5744 5738 5732 5728 5724 5720 5715 5712 5708 5704 5700 5696 5691 5686 5681 5675 5671 5665 5658 5651 5644 5635 5627 5620 5611 5603 5597 5593 5587 5583 5578 5573 5569 5564 5560 5556 5551 5547
5755 5750 5745 5741 5737 5730 5726 5722 5719 5713 5710 5706 5703 5699 5695 5692 5688 5684 5678 5672 5667 5662 5656 5650 5643 5635 5628 5621 5613 5605 5597 5592 5587 5583 5578 5574 5569 5564 5558 5553 5549 5543 5539
5744 5740 5735 5731 5727 5722 5719 5715 5710 5706 5703 5700 5696 5692 5688 5684 5680 5676 5671 5666 5661 5655 5649 5642 5635 5629 5622 5614 5606 5598 5592 5587 5583 5579 5574 5570 5565 5560 5554 5549 5544 5538 5531
5734 5730 5728 5725 5720 5715 5710 5707 5705 5701 5697 5693 5689 5685 5681 5678 5674 5670 5665 5660 5654 5647 5640 5633 5627 5622 5616 5609 5601 5594 5587 5582 5578 5574 5570 5566 5561 5556 5551 5545 5539 5532 5525
5726 5722 5719 5716 5712 5708 5705 5701 5697 5693 5690 5686 5683 5679 5675 5672 5668 5664 5659 5653 5646 5638 5631 5625 5620 5615 5609 5604 5598 5591 5584 5578 5573 5569 5565 5560 5556 5552 5546 5541 5535 5527 5519
5719 5717 5714 5709 5706 5703 5698 5694 5690 5687 5683 5679 5675 5673 5670 5666 5662 5657 5652 5645 5638 5631 5624 5618 5612 5608 5603 5598 5593 5587 5581 5575 5570 5564 5560 5556 5552 5547 5543 5537 5531 5523 5515